CAPE
0 0 0 0 0 0 0 0 0 0 0 0 0 0 0 0 0 0 0 0 0 0 0 0 0 1 2 4 5 7 9 10 12 13 13 17 17 16 12 12 7 3 12
0 0 0 0 0 0 0 0 0 0 0 0 0 0 0 0 0 0 0 0 0 0 0 1 0 0 0 0 3 5 5 6 10 5 4 6 9 12 17 17 16 16 6
0 0 0 0 0 0 0 0 0 0 0 0 0 0 0 0 0 0 0 0 0 0 0 0 0 0 0 0 0 0 0 0 0 3 7 5 5 8 9 14 25 22 19
0 0 0 0 0 0 0 0 0 0 0 0 0 0 0 0 0 0 0 0 0 0 0 0 0 0 0 0 0 0 0 0 1 3 4 7 11 16 19 14 11 17 24
0 0 0 0 0 0 0 0 0 0 0 0 0 0 0 0 0 0 0 0 0 0 0 0 0 0 0 0 0 0 0 0 3 4 2 5 8 12 12 15 24 29 34
0 0 0 0 0 0 0 0 0 0 0 0 0 0 0 0 0 0 0 0 0 0 0 0 0 0 0 0 0 0 0 0 3 4 5 10 13 14 14 17 23 21 22
0 0 0 0 0 0 0 0 0 0 0 0 0 0 0 0 0 0 0 0 0 0 0 0 0 0 0 0 0 0 0 0 0 1 5 8 12 9 11 17 23 29 38
0 0 0 0 0 0 0 0 0 0 0 0 0 0 0 0 0 0 0 0 0 0 0 0 0 0 0 0 0 0 0 0 0 0 3 7 6 8 14 17 24 38 72
0 0 0 0 0 0 0 0 0 0 0 0 0 0 0 0 0 0 0 0 0 0 0 0 0 0 0 0 0 0 0 0 0 0 5 8 9 13 22 27 31 42 50
0 0 0 0 0 0 0 0 0 0 0 0 0 0 0 0 0 0 0 0 0 0 0 0 0 0 0 0 0 0 0 0 0 3 7 11 15 24 35 47 40 34 42
0 0 0 0 0 0 0 0 0 0 0 0 0 0 0 0 0 0 0 0 0 0 0 0 0 0 0 0 0 0 0 0 4 8 16 26 33 41 50 62 57 56 45
0 0 0 0 0 0 0 0 0 0 0 0 0 0 0 0 0 0 0 0 0 0 0 0 0 0 0 0 0 0 0 0 0 2 17 39 59 62 58 53 62 64 59
0 0 0 0 0 0 0 0 0 0 0 0 0 0 0 0 0 0 0 0 0 0 0 0 0 0 0 0 0 0 0 0 0 1 6 15 31 49 44 40 50 55 58
0 0 0 0 0 0 0 0 0 0 0 0 0 0 0 0 0 0 0 0 0 0 0 0 0 0 0 0 0 0 0 0 0 0 1 6 8 13 20 21 34 43 46
0 0 0 0 0 0 0 0 0 0 0 0 0 0 0 0 0 0 0 0 0 0 0 0 0 0 0 0 0 0 0 0 0 0 0 2 5 9 11 17 27 37 48
0 0 0 0 0 0 0 0 0 0 0 0 0 0 0 0 0 0 0 0 0 0 0 0 0 0 0 0 0 0 0 0 0 0 0 2 7 16 23 29 39 49 51
0 0 0 0 0 0 0 0 0 0 0 0 0 0 0 0 0 0 0 0 0 0 0 0 0 0 0 0 0 0 0 0 0 0 1 4 14 29 42 54 49 55 79
0 0 0 0 0 0 0 0 0 0 0 0 0 0 0 0 0 0 0 0 0 0 0 0 0 0 0 0 0 0 0 0 0 0 0 12 5 10 50 64 52 51 52
0 0 0 0 0 0 0 0 0 0 0 0 0 0 0 0 0 0 0 0 0 0 0 0 0 0 0 0 0 0 0 0 0 0 0 0 3 6 38 54 55 52 20
0 0 0 0 0 0 0 0 0 0 0 0 0 0 0 0 0 0 0 0 0 0 0 0 0 0 0 0 0 0 0 0 0 0 0 0 0 2 0 1 20 55 41
0 0 0 0 0 0 0 0 0 0 0 0 0 0 0 0 0 0 0 0 0 0 0 0 0 0 1 1 0 0 4 0 0 0 0 0 0 0 0 0 0 2 26
0 0 0 0 0 0 0 0 0 0 0 0 0 0 0 0 0 0 0 7 9 1 0 9 4 8 0 0 0 1 0 0 1 0 3 3 0 0 0 0 0 4 45
0 0 0 0 0 0 0 0 0 0 0 0 0 0 0 0 0 0 0 0 0 0 6 1 0 12 7 9 18 12 5 3 2 2 2 7 0 0 0 0 0 3 36
0 0 0 0 0 0 0 0 0 0 0 0 0 0 0 0 0 0 4 0 0 0 0 5 2 0 0 0 4 8 7 11 0 0 0 5 0 0 0 0 0 1 2
0 0 0 0 0 0 0 0 0 0 0 0 0 0 0 0 0 18 1 0 0 0 0 4 0 1 6 7 10 4 0 1 0 0 0 3 1 0 0 0 0 0 0
0 0 0 0 0 0 0 0 0 0 0 0 0 0 0 0 14 22 0 0 0 0 0 0 0 0 0 0 0 0 0 0 0 0 0 0 0 0 0 0 0 0 0
CIN
0 0 0 0 0 0 0 0 0 0 0 0 0 0 0 0 0 0 0 0 0 0 0 0 0 0 0 0 0 0 0 0 0 0 0 0 -1 0 0 0 0 0 0
0 0 0 0 0 0 0 0 0 0 0 0 0 0 0 0 0 0 0 0 0 0 0 0 0 0 0 0 0 0 0 0 0 0 0 0 0 0 0 0 0 0 0
0 0 0 0 0 0 0 0 0 0 0 0 0 0 0 0 0 0 0 0 0 0 0 0 0 0 0 0 0 0 0 0 0 0 0 0 0 0 0 0 0 0 0
0 0 0 0 0 0 0 0 0 0 0 0 0 0 0 0 0 0 0 0 0 0 0 0 0 0 0 0 0 0 0 0 0 0 0 0 0 0 0 0 0 0 0
0 0 0 0 0 0 0 0 0 0 0 0 0 0 0 0 0 0 0 0 0 0 0 0 0 0 0 0 0 0 0 0 0 0 0 0 0 0 0 0 0 0 0
0 0 0 0 0 0 0 0 0 0 0 0 0 0 0 0 0 0 0 0 0 0 0 0 0 0 0 0 0 0 0 0 0 0 0 0 0 0 0 0 0 0 0
0 0 0 0 0 0 0 0 0 0 0 0 0 0 0 0 0 0 0 0 0 0 0 0 0 0 0 0 0 0 0 0 0 0 0 0 0 0 0 0 0 0 0
0 0 0 0 0 0 0 0 0 0 0 0 0 0 0 0 0 0 0 0 0 0 0 0 0 0 0 0 0 0 0 0 0 0 0 0 0 0 0 0 0 0 0
0 0 0 0 0 0 0 0 0 0 0 0 0 0 0 0 0 0 0 0 0 0 0 0 0 0 0 0 0 0 0 0 0 0 0 0 0 0 0 0 0 0 0
0 0 0 0 0 0 0 0 0 0 0 0 0 0 0 0 0 0 0 0 0 0 0 0 0 0 0 0 0 0 0 0 0 0 0 0 0 0 0 0 0 0 0
0 0 0 0 0 0 0 0 0 0 0 0 0 0 0 0 0 0 0 0 0 0 0 0 0 0 0 0 0 0 0 0 0 0 0 0 0 0 0 0 0 0 0
0 0 0 0 0 0 0 0 0 0 0 0 0 0 0 0 0 0 0 0 0 0 0 0 0 0 0 0 0 0 0 0 0 0 0 0 0 0 0 0 0 0 0
0 0 0 0 0 0 0 0 0 0 0 0 0 0 0 0 0 0 0 0 0 0 0 0 0 0 0 0 0 0 0 0 0 0 0 0 0 0 0 0 0 0 0
0 0 0 0 0 0 0 0 0 0 0 0 0 0 0 0 0 0 0 0 0 0 0 0 0 0 0 0 0 0 0 0 0 0 0 0 0 0 0 0 0 0 0
0 0 0 0 0 0 0 0 0 0 0 0 0 0 0 0 0 0 0 0 0 0 0 0 0 0 0 0 0 0 0 0 0 0 0 0 0 0 0 0 0 0 0
0 0 0 0 0 0 0 0 0 0 0 0 0 0 0 0 0 0 0 0 0 0 0 0 0 0 0 0 0 0 0 0 0 0 0 0 0 0 0 0 0 0 0
0 0 0 0 0 0 0 0 0 0 0 0 0 0 0 0 0 0 0 0 0 0 0 0 0 0 0 0 0 0 0 0 0 0 0 0 0 0 0 0 0 0 0
0 0 0 0 0 0 0 0 0 0 0 0 0 0 0 0 0 0 0 0 0 0 0 0 0 0 0 0 0 0 0 0 0 0 0 0 0 0 0 0 0 0 -2
0 0 0 0 0 0 0 0 0 0 0 0 0 0 0 0 0 0 0 0 0 0 0 0 0 0 0 0 0 0 0 0 0 0 0 -1 -6 0 0 0 0 0 -2
0 0 0 0 0 0 0 0 0 0 0 0 0 0 0 0 0 0 0 0 0 0 0 0 0 0 0 0 0 0 0 0 0 0 0 0 0 -1 0 0 -3 0 -3
0 0 0 0 0 0 0 0 0 0 0 0 0 0 0 0 0 0 0 0 0 0 0 0 0 0 -1 0 0 0 -1 -1 0 0 0 0 0 0 0 0 0 -2 -4
0 0 0 0 0 0 0 0 0 0 0 0 0 0 0 0 0 0 0 0 -2 -2 -3 0 0 0 -1 0 0 0 0 0 -2 0 -13 -4 0 0 0 0 0 -5 -3
0 0 0 0 0 0 0 0 0 0 0 0 0 0 0 0 0 0 0 0 0 0 0 -1 0 0 -1 0 0 0 0 0 0 -7 -5 -1 0 0 0 0 0 -1 0
0 0 0 0 0 0 0 0 0 0 0 0 0 0 0 0 0 0 -1 0 0 0 0 0 -1 0 0 0 -2 -1 -2 0 0 0 0 -1 0 0 0 0 0 0 0
0 0 0 0 0 0 0 0 0 0 0 0 0 0 0 0 0 0 0 0 0 0 0 0 0 0 0 0 -1 -6 0 0 0 0 0 -8 -1 0 0 0 0 0 0
0 0 0 0 0 0 0 0 0 0 0 0 0 0 0 0 0 0 0 0 0 0 0 0 0 0 0 0 0 0 0 0 0 -1 0 0 0 0 0 0 0 0 0
Wind_Speed
3 3 3 3 3 3 4 4 4 4 5 5 5 6 5 4 4 3 2 9 11 11 11 11 11 11 11 11 11 11 11 12 13 14 14 14 14 13 14 14 14 15 17
5 2 3 3 3 3 3 4 4 4 4 4 5 5 4 4 4 4 3 4 10 10 10 11 11 10 11 12 11 11 12 12 14 15 15 16 16 16 15 14 15 15 15
7 5 3 3 3 3 5 4 4 4 4 3 5 5 4 4 4 4 3 3 4 9 9 10 10 10 11 12 12 12 13 13 14 14 14 14 14 15 17 18 15 16 17
7 6 3 3 3 3 4 4 3 4 4 4 2 3 4 4 5 4 4 3 3 3 6 9 9 10 12 13 12 13 13 13 13 14 14 15 16 16 15 15 17 19 18
7 6 4 3 3 3 3 3 3 3 3 3 3 4 4 4 4 3 5 4 3 3 3 7 8 9 10 11 13 14 13 12 12 13 15 15 15 16 17 19 20 19 19
6 6 4 4 4 4 3 3 3 4 3 2 3 4 4 3 3 3 3 3 3 4 4 4 4 5 9 11 14 14 13 12 13 14 15 15 16 17 18 19 19 20 22
5 6 5 3 3 4 3 3 2 3 4 2 4 3 3 4 4 3 2 3 4 4 5 5 4 3 4 12 13 13 13 13 14 14 14 16 17 18 19 18 18 20 20
5 5 5 5 4 4 4 3 2 2 2 4 3 2 1 3 3 3 2 2 4 3 5 5 6 6 5 4 8 13 12 14 15 15 16 17 18 19 19 20 20 20 21
4 6 5 5 5 3 3 2 2 3 3 3 5 4 2 3 1 2 2 1 4 3 4 4 6 6 6 5 8 9 12 13 15 16 17 18 19 20 20 20 20 22 21
5 5 5 5 5 4 4 3 2 2 2 3 1 3 5 3 2 2 2 2 3 3 5 4 5 5 5 5 9 12 14 15 16 17 19 20 20 21 21 22 21 21 23
5 4 6 5 5 4 4 5 3 4 2 2 1 1 4 4 3 3 2 4 3 2 2 4 4 5 5 5 5 7 16 17 19 20 22 23 22 22 21 23 22 21 21
3 4 5 5 4 5 4 4 5 4 4 4 3 2 2 2 1 2 1 2 3 4 3 4 4 4 4 4 5 11 16 18 20 22 23 25 25 23 21 22 23 23 21
2 5 5 5 4 5 5 4 4 5 4 3 3 2 2 3 2 2 2 2 2 3 4 4 4 4 4 4 5 13 15 20 22 23 24 25 25 23 22 22 22 22 22
4 4 5 4 5 6 5 5 3 4 5 4 5 3 2 2 2 1 1 1 4 3 2 7 3 4 4 4 9 17 8 20 23 24 25 25 24 23 23 23 23 22 22
4 5 5 5 5 6 6 5 4 5 4 4 3 3 2 2 2 0 0 2 3 4 5 3 3 3 4 5 9 10 9 18 23 23 23 23 23 23 22 22 22 23 21
6 7 7 6 5 6 5 6 5 3 5 4 2 5 4 2 3 3 2 1 2 3 5 3 3 3 4 5 8 8 10 19 20 21 21 22 22 22 22 21 21 22 20
8 7 7 7 6 6 5 6 5 3 6 5 5 5 5 4 3 3 3 2 2 2 4 4 2 3 3 6 7 6 8 8 7 19 21 21 21 21 22 21 21 21 21
6 7 6 7 6 6 6 6 6 6 6 6 5 5 5 4 5 4 2 4 3 3 2 8 3 3 4 5 6 8 7 8 8 16 22 22 21 20 20 19 20 17 13
7 7 7 7 7 6 6 6 7 6 6 5 5 5 5 5 5 3 4 4 3 3 3 4 7 3 4 4 7 6 6 9 6 17 19 21 21 19 18 19 16 13 15
7 6 8 6 7 6 7 6 6 6 6 5 4 5 5 4 4 5 4 5 4 4 4 5 6 6 4 5 3 6 8 6 9 9 14 15 18 17 18 18 17 16 14
7 7 7 7 6 7 5 6 6 6 5 5 5 5 4 6 11 10 5 5 5 3 4 4 7 8 9 9 8 6 8 10 10 5 5 5 5 7 9 13 12 15 12
7 7 7 8 7 4 12 10 7 5 4 4 4 4 5 5 8 13 13 15 13 7 5 7 8 10 11 7 9 7 8 9 7 2 5 8 6 8 7 6 15 16 15
6 8 7 7 6 4 8 9 9 4 4 3 3 4 4 3 8 6 10 12 9 13 15 11 9 10 10 11 10 7 10 10 5 7 9 9 4 7 7 7 15 15 15
7 7 6 6 5 4 5 7 7 3 2 3 3 3 4 6 7 9 7 6 5 6 7 6 4 8 9 10 9 8 7 8 5 5 3 7 3 3 4 5 12 11 12
6 5 5 5 6 3 4 6 5 2 2 4 4 5 5 6 13 17 9 5 5 7 8 12 15 17 17 17 14 5 5 8 8 5 2 2 3 4 3 4 4 9 11
6 5 6 5 7 5 7 4 3 1 2 3 4 5 11 11 16 16 7 3 6 7 5 5 6 8 10 9 15 5 4 6 6 6 2 5 6 3 5 3 3 5 4
Wind_Direction
137 121 104 94 88 87 84 77 76 76 68 72 73 85 88 103 93 69 38 65 71 71 63 57 48 40 33 27 24 17 10 2 356 351 345 341 338 335 334 333 333 331 321
126 129 121 109 98 98 95 91 89 85 75 79 74 74 81 98 105 94 60 41 68 65 58 51 42 37 27 20 15 11 3 356 355 345 339 335 332 329 326 322 326 324 323
136 145 134 116 116 98 100 88 75 75 72 62 70 74 85 98 118 107 89 65 47 46 52 41 38 32 19 7 0 357 356 357 347 345 344 339 334 329 324 322 318 316 317
134 131 136 131 127 103 103 93 89 73 70 66 78 58 74 89 98 100 100 78 62 43 26 42 34 24 8 1 1 353 349 347 347 347 343 339 336 334 329 320 316 315 311
134 127 138 137 123 101 89 103 60 98 67 63 99 69 61 75 79 94 102 94 83 58 29 14 15 7 356 0 357 352 347 347 342 342 337 334 335 334 331 325 325 317 309
134 126 126 137 125 103 86 77 96 52 85 104 79 74 54 53 61 75 96 89 67 51 26 20 2 341 341 348 348 349 351 344 336 333 332 332 334 332 327 323 320 315 312
139 137 129 132 125 114 120 128 94 78 39 37 100 27 34 47 61 43 48 52 37 29 32 13 348 336 333 340 336 333 343 341 337 332 330 329 330 327 321 317 313 311 308
151 138 136 136 126 111 95 83 106 109 77 18 114 81 66 342 21 19 23 63 42 27 16 5 1 351 340 323 315 319 324 333 337 331 327 326 325 325 320 316 313 309 313
152 136 137 129 130 119 117 93 109 115 129 31 55 140 99 223 344 345 15 72 33 17 354 348 350 346 341 331 336 318 310 319 327 326 324 324 323 321 316 312 309 315 313
143 129 134 125 124 122 120 113 93 88 104 116 56 45 59 126 150 338 335 316 338 340 349 343 336 336 341 332 331 322 315 312 313 319 321 319 318 318 317 313 312 314 313
114 135 126 122 122 119 107 109 103 81 59 107 91 105 66 53 53 106 290 320 335 324 323 321 321 327 338 338 337 342 347 331 318 315 313 312 312 314 320 318 317 312 308
125 118 109 121 123 106 112 117 82 82 85 79 77 57 104 110 80 70 17 304 265 302 302 310 311 310 314 321 331 344 341 330 321 313 309 308 307 306 315 314 311 307 305
141 139 135 140 122 111 110 86 95 87 77 88 80 69 73 86 104 109 145 274 282 301 312 289 283 288 300 317 317 327 330 328 322 316 309 307 306 307 308 305 303 303 303
123 125 119 105 123 107 109 105 97 91 88 81 80 68 84 72 84 117 198 160 307 283 293 260 299 309 328 317 317 331 323 324 318 310 305 303 302 300 302 299 297 298 295
113 121 117 120 110 99 99 116 98 84 98 83 70 60 64 47 41 341 192 171 193 296 287 276 285 300 316 321 320 327 321 314 314 312 306 302 299 296 295 294 296 293 289
128 138 131 105 96 100 113 96 89 92 92 71 76 48 32 10 9 4 338 249 210 223 273 224 255 282 298 304 305 310 298 307 309 312 314 309 302 298 296 292 294 289 289
129 136 120 128 120 111 98 87 90 105 82 73 42 41 25 4 357 342 353 323 280 209 259 296 282 268 280 289 290 281 285 286 287 304 311 311 307 301 294 294 295 289 281
110 109 119 108 111 99 91 106 95 71 72 56 30 25 12 1 358 342 328 306 275 280 236 297 283 284 263 280 274 292 293 298 294 302 307 311 309 304 303 304 304 312 308
108 112 108 110 106 109 101 86 85 77 71 58 37 21 1 7 339 319 317 310 293 291 282 275 295 261 265 272 304 300 299 299 287 294 303 302 303 307 306 308 306 303 311
106 98 101 107 104 103 95 86 82 67 51 42 28 23 6 347 343 342 326 315 304 297 282 282 293 298 281 304 287 301 308 304 301 299 297 297 302 311 321 313 309 299 285
105 106 108 97 102 100 100 86 77 68 55 38 25 11 1 360 357 345 327 304 301 281 290 299 302 306 312 311 298 299 293 314 308 275 301 306 310 307 304 309 305 299 290
101 99 88 90 81 84 104 101 94 81 59 46 7 356 343 338 340 337 332 333 339 331 312 320 316 308 309 306 297 287 309 316 310 252 320 308 305 299 296 292 296 294 285
101 87 80 85 88 82 106 111 101 93 66 17 351 337 326 321 331 306 316 346 341 334 324 317 310 317 323 328 319 312 314 308 304 311 308 302 304 299 302 299 306 302 297
96 91 85 88 94 52 105 131 96 91 38 340 324 313 319 323 317 326 332 318 333 314 299 305 311 299 304 311 314 306 316 308 284 290 307 301 315 301 309 302 315 324 323
83 81 93 89 85 34 93 110 101 63 315 312 331 333 324 316 318 331 336 336 308 295 306 321 321 321 327 331 325 341 333 327 315 300 287 310 320 289 285 293 323 0 344
102 99 82 70 87 55 45 36 104 198 322 342 341 316 329 336 324 332 336 321 310 308 305 313 309 316 318 314 331 330 314 312 309 308 283 337 308 333 315 277 308 316 305